SL-14 DEB, 45284

Orbit data source: Space-Track

SL-14 DEB, 45284 is space debris in LEO originally from a launch on Thu, 15 Aug 1991 UTC launched from the Plesetsk Missile And Space Complex (PKMTR). Debris objects in space refer to the collection of defunct objects orbiting the Earth. Examples of debris include non-operational satellites, rocket bodies, and fragments generated from explosions, collisions, or faulty payload assembly.

Loading next visibility...
Identifier
45284, 1991-056W
Orbit
LEO
Country
Flag of CISCIS
Related business
Manufacturer
Unknown
Mission
Spacecraft
Bus & Motor
Unknown
Mass
Unknown
Launch date (UTC)
1991-08-15 (34 years ago)
Launch vehicle
Unknown
Launch site
Plesetsk Missile And Space Complex (PKMTR)
Object type
Payload
Rocket body
Debris
Shape & HBR
Unknown
Radar Cross Section
Small (<0.1 m²)

Expand to show TLE details & history
Last TLE update: 1 day ago

TLE from 1 day ago
0 SL-14 DEB
1 45284U 91056W   25260.01413142  .00001461  00000-0  24203-2 0  9990
2 45284  82.5712 280.2684 0103620 214.0084 145.4385 13.44080371272429
Epoch: 2025-09-17T00:20Z
TLE epoch observation values (Epoch: 2025-09-17T00:20:20.954Z)
Latitude
-0.00002°
Longitude
-81.01508°
Altitude
1,160.994 km
Speed
7.241 km/s
True Right ascension
18h 41m 04s
True Declination
0° 00' 00"
Sunlit
Object was in daylight at epoch
Visualization orbit readout
Latitude
Unknown
Longitude
Unknown
Altitude
Unknown
Speed
Unknown
Apparent Right ascension
Unknown
Apparent Declination
Unknown
Sunlit
N/A
Visualization observer readout
Local Sidereal Time
19:55:38
Azimuth
Unknown
Elevation
Unknown
Doppler factor
Unknown
Orbital elements
Apogee altitude
1,168.722 km
Perigee altitude
1,013.925 km
Semi-major axis
7,469.461 km
Eccentricity
0.01036
Inclination
82.5712°
RAAN
280.2684°
Arg. of periapsis
214.0084°
True anomaly
146.10497°
Mean anomaly
145.4385°
Eccentric anomaly
145.77244°
Mean motion
3.36209 °/min
Orbital period
107.08 mins
BSTAR
0.0024203
Loading maneuver chart data...
Computing Atmospheric mass density...
Loading historical data...
Loading historical data...
Loading historical data...
Loading historical data...
Loading historical data...
Loading historical data...
Loading historical data...

Documentation

Showing up to 5 results
|